TimeEDT,TemperatureF,Dew PointF,Humidity,Sea Level PressureIn,VisibilityMPH,Wind Direction,Wind SpeedMPH,Gust SpeedMPH,PrecipitationIn,Events,Conditions,WindDirDegrees,DateUTC
12:53 AM,62.1,52.0,70,30.20,10.0,SSW,10.4,-,N/A,,Clear,210,2013-09-10 04:53:00
1:53 AM,62.1,52.0,70,30.19,10.0,SSW,9.2,-,N/A,,Clear,210,2013-09-10 05:53:00
2:53 AM,62.1,52.0,70,30.19,10.0,SSW,6.9,-,N/A,,Clear,210,2013-09-10 06:53:00
3:53 AM,61.0,54.0,78,30.19,10.0,SW,6.9,-,N/A,,Clear,220,2013-09-10 07:53:00
4:53 AM,63.0,55.9,78,30.18,10.0,SSW,9.2,-,N/A,,Clear,200,2013-09-10 08:53:00
5:53 AM,64.9,55.9,73,30.18,10.0,SSW,10.4,-,N/A,,Mostly Cloudy,200,2013-09-10 09:53:00
6:53 AM,66.0,57.0,73,30.19,10.0,SSW,10.4,-,N/A,,Overcast,210,2013-09-10 10:53:00
7:53 AM,66.9,57.9,73,30.19,10.0,SSW,8.1,-,N/A,,Overcast,210,2013-09-10 11:53:00
8:53 AM,66.9,59.0,76,30.19,10.0,SSW,10.4,-,0.00,,Overcast,210,2013-09-10 12:53:00
9:53 AM,69.1,60.1,73,30.19,10.0,SW,10.4,-,N/A,,Overcast,220,2013-09-10 13:53:00
10:53 AM,69.1,61.0,75,30.19,10.0,SSW,13.8,-,N/A,,Overcast,210,2013-09-10 14:53:00
11:08 AM,69.8,60.8,73,30.18,10.0,SSW,11.5,-,N/A,,Overcast,200,2013-09-10 15:08:00
11:53 AM,69.1,61.0,75,30.18,10.0,SSW,13.8,-,N/A,,Overcast,210,2013-09-10 15:53:00
12:53 PM,70.0,62.1,76,30.16,10.0,SSW,16.1,20.7,N/A,,Overcast,210,2013-09-10 16:53:00
1:26 PM,73.4,60.8,65,30.13,10.0,SSW,18.4,27.6,N/A,,Scattered Clouds,200,2013-09-10 17:26:00
1:45 PM,71.6,60.8,69,30.11,10.0,SSW,17.3,26.5,N/A,,Mostly Cloudy,200,2013-09-10 17:45:00
1:53 PM,72.0,61.0,68,30.10,10.0,SSW,19.6,27.6,N/A,,Mostly Cloudy,200,2013-09-10 17:53:00
2:08 PM,73.4,60.8,65,30.08,10.0,SSW,19.6,31.1,N/A,,Partly Cloudy,200,2013-09-10 18:08:00
2:42 PM,73.4,62.6,69,30.10,10.0,SSW,16.1,25.3,N/A,,Mostly Cloudy,200,2013-09-10 18:42:00
2:53 PM,73.9,63.0,68,30.09,10.0,SSW,20.7,31.1,N/A,,Scattered Clouds,200,2013-09-10 18:53:00
3:40 PM,71.6,64.4,78,30.11,10.0,SW,13.8,23.0,N/A,,Mostly Cloudy,220,2013-09-10 19:40:00
3:53 PM,71.1,64.0,78,30.12,10.0,SW,13.8,-,N/A,,Overcast,220,2013-09-10 19:53:00
4:39 PM,71.6,64.4,78,30.12,10.0,SW,17.3,20.7,N/A,,Mostly Cloudy,220,2013-09-10 20:39:00
4:53 PM,72.0,64.0,76,30.11,10.0,SW,15.0,25.3,N/A,,Partly Cloudy,220,2013-09-10 20:53:00
5:53 PM,70.0,64.0,81,30.11,10.0,SW,10.4,-,N/A,,Mostly Cloudy,220,2013-09-10 21:53:00
6:53 PM,69.1,64.0,84,30.11,10.0,SSW,11.5,-,N/A,,Overcast,210,2013-09-10 22:53:00
7:53 PM,68.0,64.0,87,30.12,10.0,SSW,9.2,-,N/A,,Clear,210,2013-09-10 23:53:00
8:53 PM,68.0,64.0,87,30.12,10.0,SW,12.7,-,N/A,,Clear,220,2013-09-11 00:53:00
9:53 PM,69.1,64.0,84,30.12,10.0,SW,13.8,-,N/A,,Clear,220,2013-09-11 01:53:00
10:53 PM,69.1,64.9,87,30.12,10.0,SW,15.0,20.7,N/A,,Clear,220,2013-09-11 02:53:00
11:53 PM,69.1,66.0,90,30.12,10.0,SW,13.8,-,N/A,,Clear,220,2013-09-11 03:53:00